TimeMDT,TemperatureF,Dew PointF,Humidity,Sea Level PressureIn,VisibilityMPH,Wind Direction,Wind SpeedMPH,Gust SpeedMPH,PrecipitationIn,Events,Conditions,WindDirDegrees,DateUTC
12:53 AM,50.0,45.0,83,29.94,10.0,NW,24.2,31.1,N/A,,Overcast,310,2013-05-20 06:53:00
1:53 AM,50.0,44.1,80,29.94,10.0,NW,23.0,32.2,N/A,,Overcast,320,2013-05-20 07:53:00
2:53 AM,50.0,45.0,83,29.95,10.0,NW,25.3,33.4,N/A,,Overcast,310,2013-05-20 08:53:00
3:53 AM,50.0,44.1,80,29.96,10.0,NW,25.3,35.7,N/A,,Mostly Cloudy,310,2013-05-20 09:53:00
5:53 AM,51.1,43.0,74,29.98,10.0,NNW,26.5,36.8,N/A,,Scattered Clouds,330,2013-05-20 11:53:00
6:53 AM,51.1,43.0,74,30.01,10.0,NW,21.9,32.2,N/A,,Mostly Cloudy,320,2013-05-20 12:53:00
7:53 AM,53.1,42.1,66,30.01,10.0,NNW,31.1,40.3,N/A,,Overcast,340,2013-05-20 13:53:00
8:53 AM,54.0,42.1,64,30.02,10.0,NNW,27.6,36.8,N/A,,Mostly Cloudy,330,2013-05-20 14:53:00
9:53 AM,53.1,41.0,64,30.04,10.0,NNW,27.6,33.4,0.00,,Overcast,340,2013-05-20 15:53:00
10:53 AM,57.0,42.1,57,30.03,10.0,NNW,25.3,34.5,N/A,,Scattered Clouds,330,2013-05-20 16:53:00
11:53 AM,57.9,39.9,51,30.03,10.0,NNW,23.0,38.0,N/A,,Mostly Cloudy,340,2013-05-20 17:53:00
12:53 PM,61.0,34.0,36,30.01,10.0,NNW,27.6,39.1,N/A,,Clear,340,2013-05-20 18:53:00
1:53 PM,62.1,30.9,31,30.01,10.0,NNW,28.8,38.0,N/A,,Partly Cloudy,340,2013-05-20 19:53:00
2:53 PM,63.0,32.0,31,30.00,10.0,NNW,33.4,41.4,N/A,,Clear,330,2013-05-20 20:53:00
3:53 PM,64.0,27.0,25,30.00,10.0,North,27.6,38.0,N/A,,Partly Cloudy,350,2013-05-20 21:53:00
4:53 PM,64.0,27.0,25,30.00,10.0,North,20.7,36.8,N/A,,Clear,350,2013-05-20 22:53:00
5:53 PM,63.0,28.9,28,30.00,10.0,NNW,27.6,33.4,N/A,,Clear,340,2013-05-20 23:53:00
6:53 PM,60.1,26.1,27,30.01,10.0,NNW,23.0,31.1,N/A,,Clear,340,2013-05-21 00:53:00
8:53 PM,55.9,25.0,30,30.05,10.0,NW,20.7,25.3,N/A,,Clear,320,2013-05-21 02:53:00
9:53 PM,54.0,32.0,43,30.06,10.0,NW,18.4,-,N/A,,Partly Cloudy,320,2013-05-21 03:53:00
10:53 PM,53.1,32.0,45,30.06,10.0,NW,16.1,-,N/A,,Overcast,320,2013-05-21 04:53:00
11:53 PM,52.0,32.0,47,30.05,10.0,NW,21.9,-,N/A,,Overcast,320,2013-05-21 05:53:00